GSAT0203 (GALILEO 7)

Last updated on Jan. 23, 2021, 7:10 a.m. UTC

1 40544U 15017A   21022.11607955 -.00000059  00000-0  00000-0 0  9997
2 40544  56.5540  35.3858 0005507 263.2249  96.7544  1.70475081 35580
UTC
Height (km)
Latitude
Longitude
Inclination
Orbital Period
UTC large
Height (km)
Speed (km/s)
/
Latitude / Longitude
Inclination (degrees)
Orbital Period (minutes)
Azimuth
Elevation
Range (km)
Doppler Factor
iOS Compass Heading
iOS Angle

Next 30 passes for location: Hong Kong

Rise time Rise Azimuth (degrees) Set time Set Azimuth (degrees) Duration Max altitude (degrees)

No matching passes for this satellites